Weather History for Cincinnati, OH

Change the Weather History Date:

Thursday, February 7, 2013

  Actual Average Record
Temperature  
Mean Temperature 46 °F -  
Max Temperature 61 °F 37 °F 61 °F (2013)
Min Temperature 30 °F 20 °F -4 °F (1977)
Degree Days  
Heating Degree Days 20    
Moisture  
Dew Point 32 °F    
Average Humidity 73    
Maximum Humidity 92    
Minimum Humidity 36    
Precipitation  
Precipitation 0.00 in - - ()
Sea Level Pressure  
Sea Level Pressure 30.05 in    
Wind  
Wind Speed 2 mph (SE)    
Max Wind Speed 7 mph    
Max Gust Speed -    
Visibility 8 miles    
Events      
Averages and records for this station are not official NWS values.
T = Trace of Precipitation, MM = Missing Value Source: NWS Daily Summary

Daily Weather History Graph

Daily Weather History Graph

Search for Another Location

Airport:

Trip Planner

Search our weather history database for the weather conditions in past years. The results will help you decide how hot, cold, wet, or windy it might be!

Date:

Astronomy

Feb. 07, 2013 Rise Set
Actual Time 7:38 AM EST 6:06 PM EST
Civil Twilight 7:10 AM EST 6:33 PM EST
Nautical Twilight 6:38 AM EST 7:05 PM EST
Astronomical Twilight 6:07 AM EST 7:36 PM EST
Moon 5:16 AM EST (2/7) 3:30 PM EST (2/7)
Length of Visible Light 11h 23m
Length of Day
10h 27m
Waning Crescent, 9% of the Moon is Illuminated
Feb 7
Waning Crescent
Feb 10
New
Feb 17
First Quarter
Feb 25
Full
Mar 4
Last Quarter

Hourly Weather History & Observations

Time (EST) Temp. Windchill Dew Point Humidity Pressure Visibility Wind Dir Wind Speed Gust Speed Precip Events Conditions
12:53 AM 30.0 °F 26.5 °F 27.0 °F 88% 30.24 in 6.0 mi ENE 3.5 mph - N/A   Clear
1:53 AM 30.0 °F 26.5 °F 27.0 °F 88% 30.22 in 6.0 mi NE 3.5 mph - N/A   Scattered Clouds
2:53 AM 30.9 °F - 27.0 °F 85% 30.22 in 6.0 mi Calm Calm - N/A   Clear
3:53 AM 30.9 °F 26.2 °F 27.0 °F 85% 30.19 in 7.0 mi North 4.6 mph - N/A   Mostly Cloudy
4:53 AM 30.9 °F - 28.0 °F 89% 30.20 in 7.0 mi Calm Calm - N/A   Partly Cloudy
5:53 AM 30.9 °F - 28.0 °F 89% 30.20 in 7.0 mi Calm Calm - N/A   Clear
6:53 AM 30.9 °F 27.5 °F 28.0 °F 89% 30.19 in 7.0 mi ENE 3.5 mph - N/A   Clear
7:53 AM 30.9 °F - 28.0 °F 89% 30.18 in 6.0 mi Calm Calm - N/A   Clear
8:53 AM 32.0 °F - 30.0 °F 92% 30.16 in 5.0 mi Calm Calm - N/A   Clear
9:53 AM 36.0 °F - 30.0 °F 79% 30.15 in 7.0 mi Calm Calm - N/A   Clear
10:53 AM 41.0 °F - 32.0 °F 70% 30.12 in 8.0 mi Calm Calm - N/A   Partly Cloudy
11:53 AM 45.0 °F - 33.1 °F 63% 30.11 in 10.0 mi Calm Calm - N/A   Clear
12:53 PM 51.1 °F - 35.1 °F 54% 30.05 in 10.0 mi Calm Calm - N/A   Clear
1:53 PM 55.9 °F - 35.1 °F 45% 30.00 in 10.0 mi SSW 4.6 mph - N/A   Clear
2:53 PM 59.0 °F - 35.1 °F 41% 29.96 in 10.0 mi Calm Calm - N/A   Clear
3:53 PM 61.0 °F - 34.0 °F 36% 29.96 in 10.0 mi Variable 3.5 mph - N/A   Clear
4:53 PM 60.1 °F - 34.0 °F 38% 29.93 in 10.0 mi South 6.9 mph - N/A   Clear
5:53 PM 55.9 °F - 36.0 °F 47% 29.92 in 10.0 mi SE 3.5 mph - N/A   Clear
6:53 PM 46.0 °F - 37.0 °F 71% 29.91 in 10.0 mi Calm Calm - N/A   Clear
7:53 PM 41.0 °F - 36.0 °F 82% 29.91 in 10.0 mi Calm Calm - N/A   Clear
8:53 PM 39.0 °F - 35.1 °F 86% 29.89 in 10.0 mi Calm Calm - N/A   Clear
9:53 PM 37.9 °F 35.5 °F 35.1 °F 89% 29.89 in 10.0 mi South 3.5 mph - N/A   Clear
10:53 PM 39.0 °F 35.7 °F 34.0 °F 82% 29.86 in 10.0 mi WSW 4.6 mph - N/A   Mostly Cloudy
11:53 PM 46.9 °F - 36.0 °F 66% 29.84 in 10.0 mi SSW 6.9 mph - N/A   Overcast